Flag for Poland Weather past 2 weeks in Kielce, Poland

Now
64 °F

Fog.


Feels Like: 64 °F
Forecast: 64 / 81 °F
Wind: 2 mph from Southeast

Location: Kielce

Current Time: Jul 30, 2014 at 8:19:44 AM

Latest Report: Jul 30, 2014 at 7:00 AM


Visibility: 4 mi

Pressure: 29.81 "Hg

Humidity: 94%

Dew point: 63 °F

Location of KielceLocation

Historic Weather in Kielce — Graph

°F

Kielce temperature yesterday

Maximum temperature yesterday: 86 °F (at 3:00 PM)
Minimum temperature yesterday: 61 °F (at 5:00 AM)
Average temperature yesterday: 71 °F

Past Weeks' High & Low Weather Summary

 TemperatureHumidityPressure
High86 °F (Jul 29, 3:00 PM)100% (Jul 16, 2:00 AM)30.16 "Hg (Jul 16, 2:00 AM)
Low56 °F (Jul 16, 5:00 AM)34% (Jul 20, 3:00 PM)29.78 "Hg (Jul 29, 4:00 PM)
Average69 °F78%29.98 "Hg
* Reported Jul 15 7:00 AM — Jul 30 7:00 AM, Kielce, Weather by CustomWeather, © 2014

Note: Actual official high and low records may vary slightly from our data, if they occured in-between our weather recording intervals... More about our weather records

Advertising

Kielce weather history for previous 24 hours

 ConditionsComfort  
Time TempWeatherWind HumidityBarometerVisibility
7:00 AM
Jul 30
64 °FFog.2 mph94%29.81 "Hg4 mi
6:00 AM62 °FFog.1 mph97%29.81 "Hg2 mi
5:00 AM62 °FFog.1 mph97%29.80 "Hg2 mi
4:00 AM63 °FFog.2 mph96%29.80 "Hg6 mi
3:00 AM63 °FFog.3 mph96%29.80 "Hg5 mi
2:00 AM64 °FClear.3 mph95%29.81 "Hg6 mi
1:00 AM64 °FClear.2 mph95%29.82 "Hg7 mi
12:00 AM64 °FPassing clouds.2 mph94%29.82 "Hg7 mi
11:00 PM
Jul 29
64 °FClear.1 mph93%29.83 "Hg9 mi
10:00 PM65 °FPassing clouds.2 mph92%29.82 "Hg11 mi
9:00 PM65 °FPassing clouds.1 mph92%29.81 "Hg8 mi
8:00 PM67 °FOvercast.1 mph92%29.80 "Hg8 mi
7:00 PM68 °FOvercast.1 mph91%29.80 "Hg9 mi
6:00 PM68 °FThundershowers. Overcast.1 mph87%29.81 "Hg12 mi
5:00 PM75 °FThunderstorms. Overcast.6 mph67%29.83 "Hg12 mi
4:00 PM82 °FThunderstorms. Partly sunny.6 mph49%29.78 "Hg16 mi
3:00 PM86 °FScattered clouds.6 mph44%29.79 "Hg19 mi
2:00 PM85 °FPassing clouds.6 mph47%29.80 "Hg19 mi
1:00 PM83 °FPassing clouds.5 mph47%29.82 "Hg19 mi
12:00 PM83 °FPassing clouds.6 mph48%29.82 "Hg19 mi
11:00 AM81 °FSunny.No wind53%29.83 "Hg19 mi
10:00 AM79 °FPassing clouds.3 mph60%29.84 "Hg19 mi
9:00 AM75 °FPassing clouds.3 mph67%29.85 "Hg17 mi
8:00 AM71 °FPassing clouds.2 mph76%29.85 "Hg16 mi
Weather by CustomWeather, © 2014

See weather overviewHow to use our weather pages